Time,TemperatureF,DewpointF,PressureIn,WindDirection,WindDirectionDegrees,WindSpeedMPH,WindSpeedGustMPH,Humidity,HourlyPrecipIn,Conditions,Clouds,dailyrainin,SoftwareType,DateUTC
2013-10-15 00:01:00,42.6,37.2,30.78,WSW,247,0.0,0.0,81,0.00,,,0.00,WUHU21623XXSP,2013-10-15 04:01:00,
2013-10-15 00:02:00,42.4,37.2,30.77,WSW,247,0.0,0.0,81,0.00,,,0.00,WUHU21623XXSP,2013-10-15 04:02:00,
2013-10-15 00:07:00,42.4,37.0,30.77,WSW,247,0.0,0.0,81,0.00,,,0.00,WUHU21623XXSP,2013-10-15 04:07:00,
2013-10-15 00:12:00,42.1,36.6,30.77,WSW,247,0.0,0.0,81,0.00,,,0.00,WUHU21623XXSP,2013-10-15 04:12:00,
2013-10-15 00:17:00,41.9,36.4,30.77,WSW,247,0.0,0.0,81,0.00,,,0.00,WUHU21623XXSP,2013-10-15 04:17:00,
2013-10-15 00:22:00,41.7,36.6,30.77,WSW,247,0.0,0.0,82,0.00,,,0.00,WUHU21623XXSP,2013-10-15 04:22:00,
2013-10-15 00:27:00,41.5,36.4,30.76,WSW,247,0.0,0.0,82,0.00,,,0.00,WUHU21623XXSP,2013-10-15 04:27:00,
2013-10-15 00:32:00,41.5,36.4,30.76,WSW,247,0.0,0.0,82,0.00,,,0.00,WUHU21623XXSP,2013-10-15 04:32:00,
2013-10-15 00:37:00,41.5,36.4,30.77,WSW,247,0.0,0.0,82,0.00,,,0.00,WUHU21623XXSP,2013-10-15 04:37:00,
2013-10-15 00:42:00,41.4,36.2,30.77,WSW,247,0.0,0.0,82,0.00,,,0.00,WUHU21623XXSP,2013-10-15 04:42:00,
2013-10-15 00:47:00,41.2,36.0,30.76,WSW,247,0.0,0.0,82,0.00,,,0.00,WUHU21623XXSP,2013-10-15 04:47:00,
2013-10-15 00:53:00,41.2,36.0,30.76,WSW,247,0.0,0.0,82,0.00,,,0.00,WUHU21623XXSP,2013-10-15 04:53:00,
2013-10-15 00:58:00,41.0,36.0,30.76,WSW,247,0.0,0.0,82,0.00,,,0.00,WUHU21623XXSP,2013-10-15 04:58:00,
2013-10-15 01:03:00,41.0,35.9,30.76,WSW,247,0.0,0.0,82,0.00,,,0.00,WUHU21623XXSP,2013-10-15 05:03:00,
2013-10-15 01:08:00,40.8,35.7,30.76,WSW,247,0.0,0.0,82,0.00,,,0.00,WUHU21623XXSP,2013-10-15 05:08:00,
2013-10-15 01:12:00,40.8,36.0,30.75,WSW,247,0.0,0.0,83,0.00,,,0.00,WUHU21623XXSP,2013-10-15 05:12:00,
2013-10-15 01:17:00,40.6,35.8,30.75,WSW,247,0.0,0.0,83,0.00,,,0.00,WUHU21623XXSP,2013-10-15 05:17:00,
2013-10-15 01:22:00,40.5,35.7,30.75,WSW,247,0.0,0.0,83,0.00,,,0.00,WUHU21623XXSP,2013-10-15 05:22:00,
2013-10-15 01:27:00,40.3,35.5,30.74,WSW,247,0.0,0.0,83,0.00,,,0.00,WUHU21623XXSP,2013-10-15 05:27:00,
2013-10-15 01:32:00,40.1,35.3,30.74,WSW,247,0.0,0.0,83,0.00,,,0.00,WUHU21623XXSP,2013-10-15 05:32:00,
2013-10-15 01:37:00,40.1,35.3,30.74,WSW,247,0.0,0.0,83,0.00,,,0.00,WUHU21623XXSP,2013-10-15 05:37:00,
2013-10-15 01:42:00,39.9,35.1,30.74,WSW,247,0.0,0.0,83,0.00,,,0.00,WUHU21623XXSP,2013-10-15 05:42:00,
2013-10-15 01:47:00,39.9,35.1,30.74,WSW,247,0.0,0.0,83,0.00,,,0.00,WUHU21623XXSP,2013-10-15 05:47:00,
2013-10-15 01:52:00,39.9,35.1,30.74,WSW,247,0.0,0.0,83,0.00,,,0.00,WUHU21623XXSP,2013-10-15 05:52:00,
2013-10-15 01:57:00,39.9,35.1,30.74,WSW,247,0.0,0.0,83,0.00,,,0.00,WUHU21623XXSP,2013-10-15 05:57:00,
2013-10-15 02:02:00,39.9,35.1,30.74,WSW,247,0.0,0.0,83,0.00,,,0.00,WUHU21623XXSP,2013-10-15 06:02:00,
2013-10-15 02:07:00,39.7,35.0,30.74,WSW,247,0.0,0.0,83,0.00,,,0.00,WUHU21623XXSP,2013-10-15 06:07:00,
2013-10-15 02:12:00,39.7,35.0,30.74,WSW,247,0.0,0.0,83,0.00,,,0.00,WUHU21623XXSP,2013-10-15 06:12:00,
2013-10-15 02:17:00,39.6,35.0,30.73,WSW,247,0.0,0.0,83,0.00,,,0.00,WUHU21623XXSP,2013-10-15 06:17:00,
2013-10-15 02:22:00,39.6,35.1,30.74,WSW,247,0.0,0.0,84,0.00,,,0.00,WUHU21623XXSP,2013-10-15 06:22:00,
2013-10-15 02:27:00,39.6,35.1,30.73,WSW,247,0.0,0.0,84,0.00,,,0.00,WUHU21623XXSP,2013-10-15 06:27:00,
2013-10-15 02:32:00,39.4,34.9,30.73,WSW,247,0.0,0.0,84,0.00,,,0.00,WUHU21623XXSP,2013-10-15 06:32:00,
2013-10-15 02:37:00,39.4,34.9,30.73,WSW,247,0.0,0.0,84,0.00,,,0.00,WUHU21623XXSP,2013-10-15 06:37:00,
2013-10-15 02:42:00,39.4,34.9,30.73,WSW,247,0.0,0.0,84,0.00,,,0.00,WUHU21623XXSP,2013-10-15 06:42:00,
2013-10-15 02:47:00,39.4,34.9,30.73,WSW,247,0.0,0.0,84,0.00,,,0.00,WUHU21623XXSP,2013-10-15 06:47:00,
2013-10-15 02:52:00,39.2,34.8,30.73,WSW,247,0.0,0.0,84,0.00,,,0.00,WUHU21623XXSP,2013-10-15 06:52:00,
2013-10-15 02:57:00,39.0,34.8,30.73,WSW,247,0.0,0.0,84,0.00,,,0.00,WUHU21623XXSP,2013-10-15 06:57:00,
2013-10-15 03:02:00,39.0,34.6,30.73,WSW,247,0.0,0.0,84,0.00,,,0.00,WUHU21623XXSP,2013-10-15 07:02:00,
2013-10-15 03:07:00,39.0,34.6,30.72,WSW,247,0.0,0.0,84,0.00,,,0.00,WUHU21623XXSP,2013-10-15 07:07:00,
2013-10-15 03:12:00,39.0,34.6,30.73,WSW,247,0.0,0.0,84,0.00,,,0.00,WUHU21623XXSP,2013-10-15 07:12:00,
2013-10-15 03:17:00,39.0,34.6,30.73,WSW,247,0.0,0.0,84,0.00,,,0.00,WUHU21623XXSP,2013-10-15 07:17:00,
2013-10-15 03:22:00,38.8,34.9,30.73,WSW,247,0.0,0.0,85,0.00,,,0.00,WUHU21623XXSP,2013-10-15 07:22:00,
2013-10-15 03:27:00,38.8,34.7,30.72,WSW,247,0.0,0.0,85,0.00,,,0.00,WUHU21623XXSP,2013-10-15 07:27:00,
2013-10-15 03:33:00,38.8,34.7,30.72,WSW,247,0.0,0.0,85,0.00,,,0.00,WUHU21623XXSP,2013-10-15 07:33:00,
2013-10-15 03:37:00,38.7,34.5,30.72,WSW,247,0.0,0.0,85,0.00,,,0.00,WUHU21623XXSP,2013-10-15 07:37:00,
2013-10-15 03:43:00,38.5,34.5,30.72,WSW,247,0.0,0.0,85,0.00,,,0.00,WUHU21623XXSP,2013-10-15 07:43:00,
2013-10-15 03:48:00,38.5,34.3,30.72,WSW,247,0.0,0.0,85,0.00,,,0.00,WUHU21623XXSP,2013-10-15 07:48:00,
2013-10-15 03:53:00,38.5,34.3,30.71,WSW,247,0.0,0.0,85,0.00,,,0.00,WUHU21623XXSP,2013-10-15 07:53:00,
2013-10-15 03:57:00,38.3,34.2,30.71,WSW,247,0.0,0.0,85,0.00,,,0.00,WUHU21623XXSP,2013-10-15 07:57:00,
2013-10-15 04:02:00,38.1,34.0,30.71,WSW,247,0.0,0.0,85,0.00,,,0.00,WUHU21623XXSP,2013-10-15 08:02:00,
2013-10-15 04:07:00,37.9,33.8,30.71,WSW,247,0.0,0.0,85,0.00,,,0.00,WUHU21623XXSP,2013-10-15 08:07:00,
2013-10-15 04:12:00,37.9,33.8,30.71,WSW,247,0.0,0.0,85,0.00,,,0.00,WUHU21623XXSP,2013-10-15 08:12:00,
2013-10-15 04:17:00,37.9,33.8,30.70,WSW,247,0.0,0.0,85,0.00,,,0.00,WUHU21623XXSP,2013-10-15 08:17:00,
2013-10-15 04:23:00,37.9,33.8,30.71,WSW,247,0.0,0.0,85,0.00,,,0.00,WUHU21623XXSP,2013-10-15 08:23:00,
2013-10-15 04:28:00,37.9,33.8,30.70,WSW,247,0.0,0.0,85,0.00,,,0.00,WUHU21623XXSP,2013-10-15 08:28:00,
2013-10-15 04:33:00,37.9,33.8,30.70,WSW,247,0.0,0.0,85,0.00,,,0.00,WUHU21623XXSP,2013-10-15 08:33:00,
2013-10-15 04:37:00,37.9,33.8,30.69,WSW,247,0.0,0.0,85,0.00,,,0.00,WUHU21623XXSP,2013-10-15 08:37:00,
2013-10-15 04:42:00,37.9,33.8,30.69,WSW,247,0.0,0.0,85,0.00,,,0.00,WUHU21623XXSP,2013-10-15 08:42:00,
2013-10-15 04:47:00,37.9,33.8,30.69,WSW,247,0.0,0.0,85,0.00,,,0.00,WUHU21623XXSP,2013-10-15 08:47:00,
2013-10-15 04:50:00,37.8,33.6,30.69,WSW,247,0.0,0.0,85,0.00,,,0.00,WUHU21623XXSP,2013-10-15 08:50:00,
2013-10-15 04:55:00,37.8,33.6,30.69,WSW,247,0.0,0.0,85,0.00,,,0.00,WUHU21623XXSP,2013-10-15 08:55:00,
2013-10-15 05:00:00,37.8,33.6,30.69,WSW,247,0.0,0.0,85,0.00,,,0.00,WUHU21623XXSP,2013-10-15 09:00:00,
2013-10-15 05:05:00,37.6,33.6,30.69,WSW,247,0.0,0.0,85,0.00,,,0.00,WUHU21623XXSP,2013-10-15 09:05:00,
2013-10-15 05:10:00,37.6,33.4,30.69,WSW,247,0.0,0.0,85,0.00,,,0.00,WUHU21623XXSP,2013-10-15 09:10:00,
2013-10-15 05:15:00,37.6,33.4,30.69,WSW,247,0.0,0.0,85,0.00,,,0.00,WUHU21623XXSP,2013-10-15 09:15:00,
2013-10-15 05:20:00,37.6,33.4,30.68,WSW,247,0.0,0.0,85,0.00,,,0.00,WUHU21623XXSP,2013-10-15 09:20:00,
2013-10-15 05:25:00,37.4,33.3,30.68,WSW,247,0.0,0.0,85,0.00,,,0.00,WUHU21623XXSP,2013-10-15 09:25:00,
2013-10-15 05:30:00,37.4,33.3,30.68,WSW,247,0.0,0.0,85,0.00,,,0.00,WUHU21623XXSP,2013-10-15 09:30:00,
2013-10-15 05:35:00,37.2,33.1,30.68,WSW,247,0.0,0.0,85,0.00,,,0.00,WUHU21623XXSP,2013-10-15 09:35:00,
2013-10-15 05:40:00,37.2,33.1,30.67,WSW,247,0.0,0.0,85,0.00,,,0.00,WUHU21623XXSP,2013-10-15 09:40:00,
2013-10-15 05:45:00,37.2,33.1,30.67,WSW,247,0.0,0.0,85,0.00,,,0.00,WUHU21623XXSP,2013-10-15 09:45:00,
2013-10-15 05:50:00,37.0,33.1,30.66,WSW,247,0.0,0.0,86,0.00,,,0.00,WUHU21623XXSP,2013-10-15 09:50:00,
2013-10-15 05:55:00,37.0,33.2,30.66,WSW,247,0.0,0.0,86,0.00,,,0.00,WUHU21623XXSP,2013-10-15 09:55:00,
2013-10-15 06:00:00,37.0,33.2,30.66,WSW,247,0.0,0.0,86,0.00,,,0.00,WUHU21623XXSP,2013-10-15 10:00:00,
2013-10-15 06:05:00,37.0,33.2,30.66,WSW,247,0.0,0.0,86,0.00,,,0.00,WUHU21623XXSP,2013-10-15 10:05:00,
2013-10-15 06:10:00,37.0,33.2,30.66,WSW,247,0.0,0.0,86,0.00,,,0.00,WUHU21623XXSP,2013-10-15 10:10:00,
2013-10-15 06:15:00,37.0,33.2,30.66,WSW,247,0.0,0.0,86,0.00,,,0.00,WUHU21623XXSP,2013-10-15 10:15:00,
2013-10-15 06:20:00,37.0,33.2,30.66,SW,225,0.0,0.0,86,0.00,,,0.00,WUHU21623XXSP,2013-10-15 10:20:00,
2013-10-15 06:25:00,37.0,33.2,30.66,SW,225,0.0,0.0,86,0.00,,,0.00,WUHU21623XXSP,2013-10-15 10:25:00,
2013-10-15 06:30:00,37.2,33.4,30.66,SW,225,0.0,0.0,86,0.00,,,0.00,WUHU21623XXSP,2013-10-15 10:30:00,
2013-10-15 06:35:00,37.2,33.4,30.66,SW,225,0.0,0.0,86,0.00,,,0.00,WUHU21623XXSP,2013-10-15 10:35:00,
2013-10-15 06:40:00,37.2,33.4,30.65,SW,225,0.0,0.0,86,0.00,,,0.00,WUHU21623XXSP,2013-10-15 10:40:00,
2013-10-15 06:45:00,37.0,33.2,30.66,SW,225,0.0,0.0,86,0.00,,,0.00,WUHU21623XXSP,2013-10-15 10:45:00,
2013-10-15 06:50:00,37.0,33.2,30.65,SW,225,0.0,0.0,86,0.00,,,0.00,WUHU21623XXSP,2013-10-15 10:50:00,
2013-10-15 06:55:00,37.0,33.2,30.65,SW,225,0.0,0.0,86,0.00,,,0.00,WUHU21623XXSP,2013-10-15 10:55:00,
2013-10-15 07:00:00,37.0,33.2,30.65,SW,225,0.0,0.0,86,0.00,,,0.00,WUHU21623XXSP,2013-10-15 11:00:00,
2013-10-15 07:05:00,37.0,33.2,30.65,SW,225,0.0,0.0,86,0.00,,,0.00,WUHU21623XXSP,2013-10-15 11:05:00,
2013-10-15 07:10:00,37.0,33.4,30.65,SW,225,0.0,0.0,86,0.00,,,0.00,WUHU21623XXSP,2013-10-15 11:10:00,
2013-10-15 07:15:00,37.2,33.4,30.64,SW,225,0.0,0.0,86,0.00,,,0.00,WUHU21623XXSP,2013-10-15 11:15:00,
2013-10-15 07:20:00,37.2,33.4,30.64,SW,225,0.0,0.0,86,0.00,,,0.00,WUHU21623XXSP,2013-10-15 11:20:00,
2013-10-15 07:25:00,37.2,33.4,30.64,SW,225,0.0,0.0,86,0.00,,,0.00,WUHU21623XXSP,2013-10-15 11:25:00,
2013-10-15 07:30:00,37.2,33.4,30.64,SW,225,0.0,0.0,86,0.00,,,0.00,WUHU21623XXSP,2013-10-15 11:30:00,
2013-10-15 07:35:00,37.2,33.4,30.64,SW,225,0.0,0.0,86,0.00,,,0.00,WUHU21623XXSP,2013-10-15 11:35:00,
2013-10-15 07:40:00,37.2,33.4,30.64,SW,225,0.0,0.0,86,0.00,,,0.00,WUHU21623XXSP,2013-10-15 11:40:00,
2013-10-15 07:45:00,37.2,33.4,30.64,SW,225,0.0,0.0,86,0.00,,,0.00,WUHU21623XXSP,2013-10-15 11:45:00,
2013-10-15 07:50:00,37.2,33.4,30.64,SW,225,0.0,0.0,86,0.00,,,0.00,WUHU21623XXSP,2013-10-15 11:50:00,
2013-10-15 07:55:00,37.2,33.4,30.64,SW,225,0.0,0.0,86,0.00,,,0.00,WUHU21623XXSP,2013-10-15 11:55:00,
2013-10-15 08:00:00,37.6,33.7,30.64,SW,225,0.0,0.0,86,0.00,,,0.00,WUHU21623XXSP,2013-10-15 12:00:00,
2013-10-15 08:05:00,37.6,33.7,30.64,SW,225,0.0,0.0,86,0.00,,,0.00,WUHU21623XXSP,2013-10-15 12:05:00,
2013-10-15 08:10:00,37.6,33.7,30.63,SW,225,0.0,0.0,86,0.00,,,0.00,WUHU21623XXSP,2013-10-15 12:10:00,
2013-10-15 08:15:00,37.9,34.1,30.63,SW,225,0.0,0.0,86,0.00,,,0.00,WUHU21623XXSP,2013-10-15 12:15:00,
2013-10-15 08:20:00,37.9,34.1,30.64,SW,225,0.0,0.0,86,0.00,,,0.00,WUHU21623XXSP,2013-10-15 12:20:00,
2013-10-15 08:25:00,37.9,34.1,30.63,SW,225,0.0,0.0,86,0.00,,,0.00,WUHU21623XXSP,2013-10-15 12:25:00,
2013-10-15 08:30:00,38.3,34.4,30.63,SW,225,0.0,0.0,86,0.00,,,0.00,WUHU21623XXSP,2013-10-15 12:30:00,
2013-10-15 08:35:00,38.5,34.6,30.63,SW,225,0.0,0.0,86,0.00,,,0.00,WUHU21623XXSP,2013-10-15 12:35:00,
2013-10-15 08:40:00,38.8,35.0,30.63,SW,225,0.0,0.0,86,0.00,,,0.00,WUHU21623XXSP,2013-10-15 12:40:00,
2013-10-15 08:45:00,39.2,35.6,30.63,SW,225,0.0,0.0,87,0.00,,,0.00,WUHU21623XXSP,2013-10-15 12:45:00,
2013-10-15 08:50:00,39.4,35.8,30.63,SW,225,0.0,0.0,87,0.00,,,0.00,WUHU21623XXSP,2013-10-15 12:50:00,
2013-10-15 08:55:00,39.7,36.2,30.63,SW,225,0.0,0.0,87,0.00,,,0.00,WUHU21623XXSP,2013-10-15 12:55:00,
2013-10-15 09:00:00,40.1,36.5,30.63,SW,225,0.0,0.0,87,0.00,,,0.00,WUHU21623XXSP,2013-10-15 13:00:00,
2013-10-15 09:05:00,40.5,36.8,30.62,SW,225,0.0,0.0,87,0.00,,,0.00,WUHU21623XXSP,2013-10-15 13:05:00,
2013-10-15 09:10:00,40.8,37.0,30.63,SW,225,0.0,0.0,87,0.00,,,0.00,WUHU21623XXSP,2013-10-15 13:10:00,
2013-10-15 09:15:00,41.4,37.6,30.63,SW,225,0.0,0.0,87,0.00,,,0.00,WUHU21623XXSP,2013-10-15 13:15:00,
2013-10-15 09:20:00,41.7,38.1,30.62,SW,225,0.0,0.0,87,0.00,,,0.00,WUHU21623XXSP,2013-10-15 13:20:00,
2013-10-15 09:25:00,42.1,38.3,30.63,SW,225,0.0,0.0,87,0.00,,,0.00,WUHU21623XXSP,2013-10-15 13:25:00,
2013-10-15 09:30:00,42.4,38.8,30.63,SW,225,0.0,0.0,87,0.00,,,0.00,WUHU21623XXSP,2013-10-15 13:30:00,
2013-10-15 09:35:00,43.2,39.5,30.63,SW,225,0.0,0.0,87,0.00,,,0.00,WUHU21623XXSP,2013-10-15 13:35:00,
2013-10-15 09:40:00,43.5,39.9,30.62,SW,225,0.0,0.0,87,0.00,,,0.00,WUHU21623XXSP,2013-10-15 13:40:00,
2013-10-15 09:45:00,44.1,40.3,30.61,SW,225,0.0,0.0,87,0.00,,,0.00,WUHU21623XXSP,2013-10-15 13:45:00,
2013-10-15 09:50:00,44.2,40.6,30.62,SW,225,0.0,0.0,87,0.00,,,0.00,WUHU21623XXSP,2013-10-15 13:50:00,
2013-10-15 09:55:00,44.6,41.3,30.61,SW,225,0.0,0.0,88,0.00,,,0.00,WUHU21623XXSP,2013-10-15 13:55:00,
2013-10-15 10:00:00,45.0,41.5,30.61,SW,225,0.0,0.0,88,0.00,,,0.00,WUHU21623XXSP,2013-10-15 14:00:00,
2013-10-15 10:05:00,45.1,41.8,30.61,SW,225,0.0,0.0,88,0.00,,,0.00,WUHU21623XXSP,2013-10-15 14:05:00,
2013-10-15 10:10:00,45.3,42.0,30.61,SW,225,0.0,0.0,88,0.00,,,0.00,WUHU21623XXSP,2013-10-15 14:10:00,
2013-10-15 10:15:00,45.7,42.4,30.60,SW,225,0.0,0.0,88,0.00,,,0.00,WUHU21623XXSP,2013-10-15 14:15:00,
2013-10-15 10:20:00,46.0,42.7,30.60,SW,225,0.0,0.0,88,0.00,,,0.00,WUHU21623XXSP,2013-10-15 14:20:00,
2013-10-15 10:25:00,46.2,42.9,30.59,SW,225,0.0,0.0,88,0.00,,,0.00,WUHU21623XXSP,2013-10-15 14:25:00,
2013-10-15 10:30:00,46.9,43.6,30.59,SW,225,0.0,0.0,88,0.00,,,0.00,WUHU21623XXSP,2013-10-15 14:30:00,
2013-10-15 10:35:00,47.5,44.1,30.60,SW,225,0.0,0.0,88,0.00,,,0.00,WUHU21623XXSP,2013-10-15 14:35:00,
2013-10-15 10:40:00,48.0,44.5,30.59,SW,225,0.0,0.0,88,0.00,,,0.00,WUHU21623XXSP,2013-10-15 14:40:00,
2013-10-15 10:45:00,48.7,45.0,30.58,SW,225,0.0,0.0,88,0.00,,,0.00,WUHU21623XXSP,2013-10-15 14:45:00,
2013-10-15 10:50:00,48.9,45.5,30.59,SW,225,0.0,0.0,88,0.00,,,0.00,WUHU21623XXSP,2013-10-15 14:50:00,
2013-10-15 10:55:00,49.3,45.8,30.59,SW,225,0.0,0.0,88,0.00,,,0.00,WUHU21623XXSP,2013-10-15 14:55:00,
2013-10-15 11:00:00,49.8,46.2,30.58,SW,225,0.0,0.0,88,0.00,,,0.00,WUHU21623XXSP,2013-10-15 15:00:00,
2013-10-15 11:05:00,50.2,46.7,30.58,SW,225,0.0,0.0,88,0.00,,,0.00,WUHU21623XXSP,2013-10-15 15:05:00,
2013-10-15 11:10:00,50.5,46.7,30.58,WSW,247,0.0,0.0,87,0.00,,,0.00,WUHU21623XXSP,2013-10-15 15:10:00,
2013-10-15 11:15:00,51.1,47.3,30.57,West,270,0.0,0.0,87,0.00,,,0.00,WUHU21623XXSP,2013-10-15 15:15:00,
2013-10-15 11:20:00,51.1,47.3,30.56,West,270,0.0,0.0,87,0.00,,,0.00,WUHU21623XXSP,2013-10-15 15:20:00,
2013-10-15 11:25:00,52.2,48.4,30.56,NNW,337,0.0,0.0,87,0.00,,,0.00,WUHU21623XXSP,2013-10-15 15:25:00,
2013-10-15 11:30:00,52.5,48.4,30.56,NNW,337,0.0,0.0,86,0.00,,,0.00,WUHU21623XXSP,2013-10-15 15:30:00,
2013-10-15 11:35:00,52.7,48.6,30.56,South,180,0.0,0.0,86,0.00,,,0.00,WUHU21623XXSP,2013-10-15 15:35:00,
2013-10-15 11:40:00,53.2,48.8,30.56,SW,225,0.0,0.0,85,0.00,,,0.00,WUHU21623XXSP,2013-10-15 15:40:00,
2013-10-15 11:45:00,53.2,48.8,30.56,South,180,0.0,0.0,85,0.00,,,0.00,WUHU21623XXSP,2013-10-15 15:45:00,
2013-10-15 11:50:00,53.2,48.8,30.55,West,270,0.0,0.0,84,0.00,,,0.00,WUHU21623XXSP,2013-10-15 15:50:00,
2013-10-15 11:55:00,53.8,49.0,30.55,NNE,22,0.0,0.0,84,0.00,,,0.00,WUHU21623XXSP,2013-10-15 15:55:00,
2013-10-15 12:00:00,54.0,49.2,30.54,West,270,0.0,0.0,84,0.00,,,0.00,WUHU21623XXSP,2013-10-15 16:00:00,
2013-10-15 12:05:00,54.3,49.2,30.55,NW,315,0.0,0.0,83,0.00,,,0.00,WUHU21623XXSP,2013-10-15 16:05:00,
2013-10-15 12:10:00,54.7,49.4,30.54,ENE,67,0.0,0.0,83,0.00,,,0.00,WUHU21623XXSP,2013-10-15 16:10:00,
2013-10-15 12:15:00,55.0,49.9,30.54,SE,135,0.0,0.0,83,0.00,,,0.00,WUHU21623XXSP,2013-10-15 16:15:00,
2013-10-15 12:20:00,55.0,49.9,30.55,SSW,202,0.0,0.0,82,0.00,,,0.00,WUHU21623XXSP,2013-10-15 16:20:00,
2013-10-15 12:25:00,55.4,49.9,30.54,SSE,157,0.0,0.0,82,0.00,,,0.00,WUHU21623XXSP,2013-10-15 16:25:00,
2013-10-15 12:30:00,55.9,50.0,30.53,East,90,0.0,0.0,82,0.00,,,0.00,WUHU21623XXSP,2013-10-15 16:30:00,
2013-10-15 12:35:00,56.1,50.1,30.54,North,0,0.0,0.0,81,0.00,,,0.00,WUHU21623XXSP,2013-10-15 16:35:00,
2013-10-15 12:40:00,56.3,50.2,30.53,NNW,337,0.0,0.0,81,0.00,,,0.00,WUHU21623XXSP,2013-10-15 16:40:00,
2013-10-15 12:45:00,56.5,50.5,30.53,NNW,337,0.0,0.0,81,0.00,,,0.00,WUHU21623XXSP,2013-10-15 16:45:00,
2013-10-15 12:50:00,56.8,50.7,30.53,SE,135,0.0,0.0,80,0.00,,,0.00,WUHU21623XXSP,2013-10-15 16:50:00,
2013-10-15 12:55:00,57.4,51.3,30.51,East,90,0.0,0.0,80,0.00,,,0.00,WUHU21623XXSP,2013-10-15 16:55:00,
2013-10-15 13:00:00,57.7,51.4,30.52,SW,225,0.0,0.0,80,0.00,,,0.00,WUHU21623XXSP,2013-10-15 17:00:00,
2013-10-15 13:05:00,58.1,52.0,30.51,North,0,0.0,0.0,80,0.00,,,0.00,WUHU21623XXSP,2013-10-15 17:05:00,
2013-10-15 13:10:00,58.6,52.2,30.51,ENE,67,0.0,0.0,79,0.00,,,0.00,WUHU21623XXSP,2013-10-15 17:10:00,
2013-10-15 13:15:00,58.8,52.3,30.51,NNW,337,0.0,0.0,79,0.00,,,0.00,WUHU21623XXSP,2013-10-15 17:15:00,
2013-10-15 13:20:00,59.4,52.9,30.51,ESE,112,0.0,0.0,79,0.00,,,0.00,WUHU21623XXSP,2013-10-15 17:20:00,
2013-10-15 13:25:00,59.7,53.2,30.51,West,270,0.0,0.0,79,0.00,,,0.00,WUHU21623XXSP,2013-10-15 17:25:00,
2013-10-15 13:30:00,59.9,53.1,30.50,NNE,22,0.0,0.0,78,0.00,,,0.00,WUHU21623XXSP,2013-10-15 17:30:00,
2013-10-15 13:35:00,60.1,53.2,30.50,ENE,67,0.0,0.0,78,0.00,,,0.00,WUHU21623XXSP,2013-10-15 17:35:00,
2013-10-15 13:40:00,60.4,53.6,30.49,South,180,0.0,0.0,78,0.00,,,0.00,WUHU21623XXSP,2013-10-15 17:40:00,
2013-10-15 13:45:00,60.6,53.8,30.49,ESE,112,0.0,0.0,78,0.00,,,0.00,WUHU21623XXSP,2013-10-15 17:45:00,
2013-10-15 13:50:00,60.6,53.4,30.49,NNW,337,0.0,0.0,77,0.00,,,0.00,WUHU21623XXSP,2013-10-15 17:50:00,
2013-10-15 13:55:00,60.8,53.6,30.48,NNE,22,0.0,0.0,77,0.00,,,0.00,WUHU21623XXSP,2013-10-15 17:55:00,
2013-10-15 14:00:00,61.0,53.8,30.48,SW,225,0.0,0.0,77,0.00,,,0.00,WUHU21623XXSP,2013-10-15 18:00:00,
2013-10-15 14:05:00,61.3,54.1,30.48,West,270,0.0,0.0,77,0.00,,,0.00,WUHU21623XXSP,2013-10-15 18:05:00,
2013-10-15 14:10:00,61.7,54.4,30.48,West,270,0.0,0.0,77,0.00,,,0.00,WUHU21623XXSP,2013-10-15 18:10:00,
2013-10-15 14:15:00,61.9,54.6,30.48,SSW,202,0.0,0.0,77,0.00,,,0.00,WUHU21623XXSP,2013-10-15 18:15:00,
2013-10-15 14:20:00,62.2,54.9,30.47,SSW,202,0.0,0.0,77,0.00,,,0.00,WUHU21623XXSP,2013-10-15 18:20:00,
2013-10-15 14:25:00,62.4,55.1,30.46,WSW,247,0.0,0.0,77,0.00,,,0.00,WUHU21623XXSP,2013-10-15 18:25:00,
2013-10-15 14:30:00,62.6,55.1,30.46,NNE,22,0.0,0.0,77,0.00,,,0.00,WUHU21623XXSP,2013-10-15 18:30:00,
2013-10-15 14:35:00,62.8,55.2,30.46,WSW,247,0.0,0.0,76,0.00,,,0.00,WUHU21623XXSP,2013-10-15 18:35:00,
2013-10-15 14:40:00,62.8,55.0,30.46,WNW,292,0.0,0.0,76,0.00,,,0.00,WUHU21623XXSP,2013-10-15 18:40:00,
2013-10-15 14:45:00,63.1,55.8,30.45,SSE,157,0.0,0.0,77,0.00,,,0.00,WUHU21623XXSP,2013-10-15 18:45:00,
2013-10-15 14:50:00,63.1,55.4,30.45,WSW,247,0.0,0.0,76,0.00,,,0.00,WUHU21623XXSP,2013-10-15 18:50:00,
2013-10-15 14:55:00,63.1,55.4,30.45,NNE,22,0.0,0.0,76,0.00,,,0.00,WUHU21623XXSP,2013-10-15 18:55:00,
2013-10-15 15:00:00,63.1,55.4,30.43,SSE,157,0.0,0.0,76,0.00,,,0.00,WUHU21623XXSP,2013-10-15 19:00:00,
2013-10-15 15:05:00,63.1,55.4,30.43,East,90,0.0,0.0,76,0.00,,,0.00,WUHU21623XXSP,2013-10-15 19:05:00,
2013-10-15 15:10:00,63.1,55.4,30.43,East,90,0.0,0.0,76,0.00,,,0.00,WUHU21623XXSP,2013-10-15 19:10:00,
2013-10-15 15:15:00,63.1,55.4,30.42,South,180,0.0,0.0,76,0.00,,,0.00,WUHU21623XXSP,2013-10-15 19:15:00,
2013-10-15 15:20:00,63.3,55.6,30.42,South,180,0.0,0.0,76,0.00,,,0.00,WUHU21623XXSP,2013-10-15 19:20:00,
2013-10-15 15:25:00,63.3,55.6,30.41,WSW,247,0.0,0.0,76,0.00,,,0.00,WUHU21623XXSP,2013-10-15 19:25:00,
2013-10-15 15:30:00,63.5,55.4,30.41,NE,45,0.0,0.0,75,0.00,,,0.00,WUHU21623XXSP,2013-10-15 19:30:00,
2013-10-15 15:35:00,63.5,55.4,30.42,West,270,0.0,0.0,75,0.00,,,0.00,WUHU21623XXSP,2013-10-15 19:35:00,
2013-10-15 15:40:00,63.5,55.0,30.41,SW,225,0.0,0.0,74,0.00,,,0.00,WUHU21623XXSP,2013-10-15 19:40:00,
2013-10-15 15:45:00,63.5,55.0,30.41,SSW,202,0.0,0.0,74,0.00,,,0.00,WUHU21623XXSP,2013-10-15 19:45:00,
2013-10-15 15:50:00,63.7,55.0,30.40,NNE,22,0.0,0.0,74,0.00,,,0.00,WUHU21623XXSP,2013-10-15 19:50:00,
2013-10-15 15:55:00,63.7,55.2,30.40,NE,45,0.0,0.0,74,0.00,,,0.00,WUHU21623XXSP,2013-10-15 19:55:00,
2013-10-15 16:00:00,63.7,55.2,30.40,North,0,0.0,0.0,74,0.00,,,0.00,WUHU21623XXSP,2013-10-15 20:00:00,
2013-10-15 16:05:00,63.9,55.0,30.40,SW,225,0.0,0.0,73,0.00,,,0.00,WUHU21623XXSP,2013-10-15 20:05:00,
2013-10-15 16:10:00,64.0,55.6,30.40,SSE,157,0.0,0.0,74,0.00,,,0.00,WUHU21623XXSP,2013-10-15 20:10:00,
2013-10-15 16:15:00,64.2,55.4,30.39,South,180,0.0,0.0,73,0.00,,,0.00,WUHU21623XXSP,2013-10-15 20:15:00,
2013-10-15 16:20:00,64.2,55.4,30.38,NNE,22,0.0,0.0,73,0.00,,,0.00,WUHU21623XXSP,2013-10-15 20:20:00,
2013-10-15 16:25:00,64.6,55.4,30.38,WSW,247,0.0,0.0,73,0.00,,,0.00,WUHU21623XXSP,2013-10-15 20:25:00,
2013-10-15 16:30:00,64.6,55.7,30.38,ENE,67,0.0,0.0,73,0.00,,,0.00,WUHU21623XXSP,2013-10-15 20:30:00,
2013-10-15 16:35:00,64.4,55.6,30.38,North,0,0.0,0.0,73,0.00,,,0.00,WUHU21623XXSP,2013-10-15 20:35:00,
2013-10-15 16:40:00,64.4,55.6,30.38,South,180,0.0,0.0,73,0.00,,,0.00,WUHU21623XXSP,2013-10-15 20:40:00,
2013-10-15 16:45:00,64.2,55.4,30.37,SW,225,0.0,0.0,73,0.00,,,0.00,WUHU21623XXSP,2013-10-15 20:45:00,
2013-10-15 16:50:00,64.0,55.2,30.36,SSW,202,0.0,0.0,73,0.00,,,0.00,WUHU21623XXSP,2013-10-15 20:50:00,
2013-10-15 16:55:00,64.0,55.2,30.37,WSW,247,3.8,3.8,73,0.00,,,0.00,WUHU21623XXSP,2013-10-15 20:55:00,
2013-10-15 17:00:00,63.7,54.9,30.36,NW,315,0.0,3.8,73,0.00,,,0.00,WUHU21623XXSP,2013-10-15 21:00:00,
2013-10-15 17:05:00,63.5,54.7,30.35,SSW,202,0.0,0.0,73,0.00,,,0.00,WUHU21623XXSP,2013-10-15 21:05:00,
2013-10-15 17:10:00,63.3,54.5,30.36,SSW,202,0.0,0.0,73,0.00,,,0.00,WUHU21623XXSP,2013-10-15 21:10:00,
2013-10-15 17:15:00,63.3,54.5,30.35,West,270,0.0,0.0,73,0.00,,,0.00,WUHU21623XXSP,2013-10-15 21:15:00,
2013-10-15 17:20:00,63.1,54.7,30.35,ESE,112,0.0,0.0,74,0.00,,,0.00,WUHU21623XXSP,2013-10-15 21:20:00,
2013-10-15 17:25:00,63.1,54.7,30.35,West,270,0.0,0.0,74,0.00,,,0.00,WUHU21623XXSP,2013-10-15 21:25:00,
2013-10-15 17:30:00,62.8,54.3,30.35,North,0,0.0,0.0,74,0.00,,,0.00,WUHU21623XXSP,2013-10-15 21:30:00,
2013-10-15 17:35:00,62.8,54.3,30.34,NW,315,0.0,0.0,74,0.00,,,0.00,WUHU21623XXSP,2013-10-15 21:35:00,
2013-10-15 17:40:00,62.6,54.5,30.34,NNW,337,0.0,0.0,75,0.00,,,0.00,WUHU21623XXSP,2013-10-15 21:40:00,
2013-10-15 17:45:00,62.4,54.3,30.34,East,90,0.0,2.0,75,0.00,,,0.00,WUHU21623XXSP,2013-10-15 21:45:00,
2013-10-15 17:50:00,62.4,54.3,30.34,South,180,0.0,2.0,75,0.00,,,0.00,WUHU21623XXSP,2013-10-15 21:50:00,
2013-10-15 17:55:00,62.4,54.3,30.34,WNW,292,0.0,0.0,75,0.00,,,0.00,WUHU21623XXSP,2013-10-15 21:55:00,
2013-10-15 18:00:00,62.4,54.3,30.34,ENE,67,0.0,0.0,75,0.00,,,0.00,WUHU21623XXSP,2013-10-15 22:00:00,
2013-10-15 18:05:00,62.4,54.3,30.33,SSW,202,0.0,0.0,75,0.00,,,0.00,WUHU21623XXSP,2013-10-15 22:05:00,
2013-10-15 18:10:00,62.4,54.7,30.33,East,90,0.0,0.0,76,0.00,,,0.00,WUHU21623XXSP,2013-10-15 22:10:00,
2013-10-15 18:15:00,62.2,54.5,30.34,West,270,0.0,0.0,76,0.00,,,0.00,WUHU21623XXSP,2013-10-15 22:15:00,
2013-10-15 18:20:00,62.2,54.5,30.33,SSW,202,0.0,0.0,76,0.00,,,0.00,WUHU21623XXSP,2013-10-15 22:20:00,
2013-10-15 18:25:00,62.1,54.5,30.33,NNE,22,0.0,0.0,76,0.00,,,0.00,WUHU21623XXSP,2013-10-15 22:25:00,
2013-10-15 18:30:00,62.2,54.5,30.33,NE,45,0.0,0.0,76,0.00,,,0.00,WUHU21623XXSP,2013-10-15 22:30:00,
2013-10-15 18:35:00,61.9,54.6,30.33,NE,45,0.0,0.0,77,0.00,,,0.00,WUHU21623XXSP,2013-10-15 22:35:00,
2013-10-15 18:40:00,61.9,54.6,30.33,WNW,292,0.0,0.0,77,0.00,,,0.00,WUHU21623XXSP,2013-10-15 22:40:00,
2013-10-15 18:45:00,61.7,54.2,30.32,WNW,292,0.0,0.0,77,0.00,,,0.00,WUHU21623XXSP,2013-10-15 22:45:00,
2013-10-15 18:50:00,61.5,54.2,30.33,NNE,22,0.0,0.0,77,0.00,,,0.00,WUHU21623XXSP,2013-10-15 22:50:00,
2013-10-15 18:55:00,61.5,54.2,30.33,NW,315,0.0,0.0,77,0.00,,,0.00,WUHU21623XXSP,2013-10-15 22:55:00,
2013-10-15 19:00:00,61.5,54.6,30.33,NE,45,0.0,0.0,78,0.00,,,0.00,WUHU21623XXSP,2013-10-15 23:00:00,
2013-10-15 19:05:00,61.3,55.0,30.33,NE,45,0.0,0.0,79,0.00,,,0.00,WUHU21623XXSP,2013-10-15 23:05:00,
2013-10-15 19:10:00,61.0,54.5,30.33,NNE,22,0.0,0.0,79,0.00,,,0.00,WUHU21623XXSP,2013-10-15 23:10:00,
2013-10-15 19:15:00,60.4,54.8,30.33,WNW,292,0.0,0.0,81,0.00,,,0.00,WUHU21623XXSP,2013-10-15 23:15:00,
2013-10-15 19:20:00,60.3,54.8,30.32,North,0,0.0,0.0,82,0.00,,,0.00,WUHU21623XXSP,2013-10-15 23:20:00,
2013-10-15 19:25:00,59.7,54.2,30.32,NNE,22,0.0,0.0,82,0.00,,,0.00,WUHU21623XXSP,2013-10-15 23:25:00,
2013-10-15 19:30:00,59.5,54.4,30.32,NNE,22,0.0,0.0,83,0.00,,,0.00,WUHU21623XXSP,2013-10-15 23:30:00,
2013-10-15 19:35:00,59.2,54.2,30.32,NW,315,0.0,0.0,84,0.00,,,0.00,WUHU21623XXSP,2013-10-15 23:35:00,
2013-10-15 19:40:00,59.2,54.4,30.32,WNW,292,0.0,0.0,83,0.00,,,0.00,WUHU21623XXSP,2013-10-15 23:40:00,
2013-10-15 19:45:00,58.8,54.0,30.32,West,270,0.0,0.0,84,0.00,,,0.00,WUHU21623XXSP,2013-10-15 23:45:00,
2013-10-15 19:50:00,58.8,54.0,30.32,North,0,0.0,0.0,84,0.00,,,0.00,WUHU21623XXSP,2013-10-15 23:50:00,
2013-10-15 19:55:00,58.6,54.1,30.32,North,0,0.0,0.0,85,0.00,,,0.00,WUHU21623XXSP,2013-10-15 23:55:00,
2013-10-15 20:00:00,58.6,54.1,30.32,NNW,337,0.0,0.0,85,0.00,,,0.00,WUHU21623XXSP,2013-10-16 00:00:00,
2013-10-15 20:05:00,58.5,54.1,30.32,NW,315,0.0,0.0,85,0.00,,,0.00,WUHU21623XXSP,2013-10-16 00:05:00,
2013-10-15 20:10:00,58.3,54.3,30.32,SE,135,0.0,0.0,86,0.00,,,0.00,WUHU21623XXSP,2013-10-16 00:10:00,
2013-10-15 20:15:00,58.3,54.1,30.31,NE,45,0.0,0.0,86,0.00,,,0.00,WUHU21623XXSP,2013-10-16 00:15:00,
2013-10-15 20:20:00,58.3,54.4,30.31,West,270,0.0,0.0,87,0.00,,,0.00,WUHU21623XXSP,2013-10-16 00:20:00,
2013-10-15 20:25:00,58.3,54.4,30.31,SW,225,0.0,0.0,87,0.00,,,0.00,WUHU21623XXSP,2013-10-16 00:25:00,
2013-10-15 20:30:00,58.3,54.8,30.30,WSW,247,0.0,0.0,88,0.00,,,0.00,WUHU21623XXSP,2013-10-16 00:30:00,
2013-10-15 20:35:00,58.3,54.8,30.30,WSW,247,0.0,0.0,88,0.00,,,0.00,WUHU21623XXSP,2013-10-16 00:35:00,
2013-10-15 20:40:00,58.3,54.8,30.30,WNW,292,0.0,0.0,88,0.00,,,0.00,WUHU21623XXSP,2013-10-16 00:40:00,
2013-10-15 20:45:00,58.3,55.1,30.30,NE,45,0.0,0.0,89,0.00,,,0.00,WUHU21623XXSP,2013-10-16 00:45:00,
2013-10-15 20:50:00,58.3,55.1,30.30,NW,315,0.0,0.0,89,0.00,,,0.00,WUHU21623XXSP,2013-10-16 00:50:00,
2013-10-15 20:55:00,58.3,55.1,30.30,SE,135,0.0,0.0,89,0.00,,,0.00,WUHU21623XXSP,2013-10-16 00:55:00,
2013-10-15 21:00:00,58.3,55.1,30.30,NE,45,0.0,0.0,89,0.00,,,0.00,WUHU21623XXSP,2013-10-16 01:00:00,
2013-10-15 21:05:00,58.3,55.1,30.30,North,0,0.0,0.0,89,0.00,,,0.00,WUHU21623XXSP,2013-10-16 01:05:00,
2013-10-15 21:10:00,58.3,55.1,30.30,NNE,22,0.0,0.0,89,0.00,,,0.00,WUHU21623XXSP,2013-10-16 01:10:00,
2013-10-15 21:15:00,58.3,55.1,30.30,West,270,0.0,0.0,89,0.00,,,0.00,WUHU21623XXSP,2013-10-16 01:15:00,
2013-10-15 21:20:00,58.3,55.1,30.30,West,270,0.0,0.0,89,0.00,,,0.00,WUHU21623XXSP,2013-10-16 01:20:00,
2013-10-15 21:25:00,58.1,55.2,30.30,ENE,67,0.0,0.0,90,0.00,,,0.00,WUHU21623XXSP,2013-10-16 01:25:00,
2013-10-15 21:30:00,58.1,55.2,30.29,North,0,0.0,0.0,90,0.00,,,0.00,WUHU21623XXSP,2013-10-16 01:30:00,
2013-10-15 21:35:00,58.1,55.2,30.30,West,270,0.0,0.0,90,0.00,,,0.00,WUHU21623XXSP,2013-10-16 01:35:00,
2013-10-15 21:40:00,58.3,55.4,30.29,SSW,202,0.0,0.0,90,0.00,,,0.00,WUHU21623XXSP,2013-10-16 01:40:00,
2013-10-15 21:45:00,58.3,55.4,30.29,SSW,202,0.0,0.0,90,0.00,,,0.00,WUHU21623XXSP,2013-10-16 01:45:00,
2013-10-15 21:50:00,58.1,55.2,30.29,NNE,22,0.0,0.0,90,0.00,,,0.00,WUHU21623XXSP,2013-10-16 01:50:00,
2013-10-15 21:55:00,58.1,55.2,30.29,North,0,0.0,0.0,90,0.00,,,0.00,WUHU21623XXSP,2013-10-16 01:55:00,
2013-10-15 22:00:00,58.3,55.4,30.29,North,0,0.0,0.0,90,0.00,,,0.00,WUHU21623XXSP,2013-10-16 02:00:00,
2013-10-15 22:06:00,58.3,55.4,30.30,North,0,0.0,0.0,90,0.00,,,0.00,WUHU21623XXSP,2013-10-16 02:06:00,
2013-10-15 22:10:00,58.3,55.4,30.29,North,0,0.0,0.0,90,0.00,,,0.00,WUHU21623XXSP,2013-10-16 02:10:00,
2013-10-15 22:15:00,58.3,55.4,30.29,North,0,0.0,0.0,90,0.00,,,0.00,WUHU21623XXSP,2013-10-16 02:15:00,
2013-10-15 22:20:00,58.3,55.7,30.29,North,0,0.0,0.0,91,0.00,,,0.00,WUHU21623XXSP,2013-10-16 02:20:00,
2013-10-15 22:25:00,58.1,55.5,30.29,NNE,22,0.0,0.0,91,0.00,,,0.00,WUHU21623XXSP,2013-10-16 02:25:00,
2013-10-15 22:30:00,58.1,55.5,30.29,NNE,22,0.0,0.0,91,0.00,,,0.00,WUHU21623XXSP,2013-10-16 02:30:00,
2013-10-15 22:35:00,58.1,55.5,30.29,North,0,0.0,0.0,91,0.00,,,0.00,WUHU21623XXSP,2013-10-16 02:35:00,
2013-10-15 22:41:00,58.1,55.5,30.29,West,270,0.0,0.0,91,0.00,,,0.00,WUHU21623XXSP,2013-10-16 02:41:00,
2013-10-15 22:46:00,58.1,55.5,30.29,NNE,22,0.0,0.0,91,0.00,,,0.00,WUHU21623XXSP,2013-10-16 02:46:00,
2013-10-15 22:51:00,58.1,55.5,30.28,NNE,22,0.0,0.0,91,0.00,,,0.00,WUHU21623XXSP,2013-10-16 02:51:00,
2013-10-15 22:56:00,58.1,55.5,30.28,ENE,67,0.0,0.0,91,0.00,,,0.00,WUHU21623XXSP,2013-10-16 02:56:00,
2013-10-15 23:01:00,57.9,55.3,30.28,NNE,22,0.0,0.0,91,0.00,,,0.00,WUHU21623XXSP,2013-10-16 03:01:00,
2013-10-15 23:06:00,57.9,55.3,30.28,SW,225,0.0,0.0,91,0.00,,,0.00,WUHU21623XXSP,2013-10-16 03:06:00,
2013-10-15 23:11:00,58.1,55.5,30.28,West,270,0.0,0.0,91,0.00,,,0.00,WUHU21623XXSP,2013-10-16 03:11:00,
2013-10-15 23:16:00,58.1,55.5,30.28,West,270,0.0,0.0,91,0.00,,,0.00,WUHU21623XXSP,2013-10-16 03:16:00,
2013-10-15 23:21:00,58.1,55.5,30.28,West,270,0.0,0.0,91,0.00,,,0.00,WUHU21623XXSP,2013-10-16 03:21:00,
2013-10-15 23:26:00,58.1,55.5,30.28,NE,45,0.0,0.0,91,0.00,,,0.00,WUHU21623XXSP,2013-10-16 03:26:00,
2013-10-15 23:31:00,58.1,55.5,30.28,NE,45,0.0,0.0,91,0.00,,,0.00,WUHU21623XXSP,2013-10-16 03:31:00,
2013-10-15 23:36:00,58.3,55.5,30.28,NE,45,0.0,0.0,91,0.00,,,0.00,WUHU21623XXSP,2013-10-16 03:36:00,
2013-10-15 23:41:00,58.3,55.7,30.28,NE,45,0.0,0.0,91,0.00,,,0.00,WUHU21623XXSP,2013-10-16 03:41:00,
2013-10-15 23:46:00,58.3,55.7,30.28,WSW,247,0.0,0.0,91,0.00,,,0.00,WUHU21623XXSP,2013-10-16 03:46:00,
2013-10-15 23:51:00,58.3,55.7,30.28,WSW,247,0.0,0.0,91,0.00,,,0.00,WUHU21623XXSP,2013-10-16 03:51:00,
2013-10-15 23:56:00,58.3,55.7,30.27,WSW,247,0.0,0.0,91,0.00,,,0.00,WUHU21623XXSP,2013-10-16 03:56:00,